TimeEST,TemperatureF,Dew PointF,Humidity,Sea Level PressureIn,VisibilityMPH,Wind Direction,Wind SpeedMPH,Gust SpeedMPH,PrecipitationIn,Events,Conditions,WindDirDegrees,DateUTC
12:53 AM,27.0,24.1,89,30.28,4.0,Calm,Calm,-,N/A,,Clear,0,2012-12-15 05:53:00
1:53 AM,27.0,23.0,85,30.28,4.0,Calm,Calm,-,N/A,,Clear,0,2012-12-15 06:53:00
2:53 AM,25.0,21.9,88,30.29,3.0,ENE,3.5,-,N/A,,Clear,70,2012-12-15 07:53:00
3:53 AM,25.0,21.0,85,30.28,3.0,Calm,Calm,-,N/A,,Clear,0,2012-12-15 08:53:00
4:53 AM,24.1,21.0,88,30.29,3.0,Calm,Calm,-,N/A,,Clear,0,2012-12-15 09:53:00
5:06 AM,24.8,21.2,86,30.24,2.0,ENE,3.5,-,N/A,,Clear,60,2012-12-15 10:06:00
5:53 AM,26.1,23.0,88,30.29,2.5,East,3.5,-,N/A,,Clear,100,2012-12-15 10:53:00
5:57 AM,26.6,24.8,93,30.24,1.5,East,4.6,-,N/A,,Partly Cloudy,100,2012-12-15 10:57:00
6:02 AM,24.8,23.0,93,30.24,1.0,Calm,Calm,-,N/A,,Mist,0,2012-12-15 11:02:00
6:11 AM,24.8,23.0,93,30.24,1.5,ENE,4.6,-,N/A,,Mostly Cloudy,70,2012-12-15 11:11:00
6:15 AM,24.8,23.0,93,30.24,1.0,East,5.8,-,N/A,,Mist,80,2012-12-15 11:15:00
6:17 AM,24.8,23.0,93,30.24,0.5,East,4.6,-,N/A,Fog,Light Freezing Fog,80,2012-12-15 11:17:00
6:21 AM,24.8,23.0,93,30.24,0.2,ENE,4.6,-,N/A,Fog,Light Freezing Fog,70,2012-12-15 11:21:00
6:29 AM,24.8,23.0,93,30.24,0.2,East,3.5,-,N/A,Fog,Light Freezing Fog,80,2012-12-15 11:29:00
6:46 AM,26.6,24.8,93,30.24,0.8,East,3.5,-,N/A,,Mist,80,2012-12-15 11:46:00
6:53 AM,26.1,24.1,92,30.29,0.5,East,4.6,-,N/A,Fog,Light Freezing Fog,80,2012-12-15 11:53:00
7:00 AM,26.6,24.8,93,30.24,1.2,East,4.6,-,N/A,,Scattered Clouds,80,2012-12-15 12:00:00
7:20 AM,26.6,23.0,86,30.24,2.0,East,5.8,-,N/A,,Mostly Cloudy,80,2012-12-15 12:20:00
7:32 AM,26.6,24.8,93,30.23,3.0,East,4.6,-,N/A,,Mostly Cloudy,80,2012-12-15 12:32:00
7:53 AM,27.0,25.0,92,30.28,3.0,East,6.9,-,N/A,,Mostly Cloudy,100,2012-12-15 12:53:00
8:53 AM,30.2,28.4,93,30.25,3.0,East,3.5,-,N/A,,Scattered Clouds,90,2012-12-15 13:53:00
9:53 AM,34.0,30.0,85,30.29,4.0,East,9.2,-,N/A,,Mostly Cloudy,90,2012-12-15 14:53:00
10:53 AM,37.0,30.9,79,30.27,5.0,East,12.7,-,N/A,,Haze,100,2012-12-15 15:53:00
11:53 AM,37.9,30.9,76,30.23,6.0,East,10.4,-,N/A,,Haze,90,2012-12-15 16:53:00
12:53 PM,37.0,30.9,79,30.21,5.0,East,15.0,-,N/A,,Haze,80,2012-12-15 17:53:00
1:53 PM,37.9,32.0,79,30.17,5.0,East,11.5,-,N/A,,Haze,80,2012-12-15 18:53:00
2:53 PM,37.9,30.9,76,30.14,5.0,East,8.1,-,N/A,,Haze,90,2012-12-15 19:53:00
3:53 PM,37.9,30.9,76,30.13,5.0,East,9.2,-,N/A,,Haze,90,2012-12-15 20:53:00
4:53 PM,37.9,30.9,76,30.10,4.0,East,12.7,-,N/A,,Haze,90,2012-12-15 21:53:00
5:53 PM,37.0,30.9,79,30.12,7.0,East,11.5,-,N/A,,Overcast,80,2012-12-15 22:53:00
6:33 PM,37.4,30.2,75,30.04,7.0,East,15.0,-,0.00,Rain,Light Rain,80,2012-12-15 23:33:00
6:53 PM,37.0,30.9,79,30.09,7.0,East,13.8,-,0.00,Rain,Light Rain,80,2012-12-15 23:53:00
7:53 PM,36.0,30.9,82,30.06,7.0,East,11.5,-,0.00,Rain,Light Rain,100,2012-12-16 00:53:00
8:21 PM,37.4,30.2,75,30.00,7.0,East,9.2,-,0.00,,Overcast,100,2012-12-16 01:21:00
8:50 PM,37.4,30.2,75,29.99,7.0,East,6.9,-,0.00,Rain,Light Rain,100,2012-12-16 01:50:00
8:53 PM,37.0,30.9,79,30.03,7.0,East,9.2,-,0.00,Rain,Light Rain,100,2012-12-16 01:53:00
9:35 PM,37.4,30.2,75,29.96,7.0,East,8.1,-,0.00,,Overcast,90,2012-12-16 02:35:00
9:53 PM,37.0,30.9,79,30.00,7.0,East,6.9,-,0.00,,Overcast,90,2012-12-16 02:53:00
10:53 PM,37.0,30.9,79,29.97,7.0,East,4.6,-,N/A,,Overcast,90,2012-12-16 03:53:00
11:53 PM,37.0,32.0,82,29.95,7.0,East,4.6,-,N/A,,Overcast,90,2012-12-16 04:53:00